Abraham Gonzalez, Mexico

11:43 PM CST on February 21, 2017 (GMT -0600)
Durango | | Change Station

Elev 6093 ft 24.13 °N, 104.53 °W | Updated 2 hours ago

Clear
Clear
55 °F
Feels Like 55 °F
N
6
Wind Variable Wind from North

Today
High -- | Low -- °F
--% Chance of Precip.
Yesterday
High -- | Low -- °F
Precip. -- in
Pressure 30.18 in
Visibility 10.0 miles
Clouds Clear
Dew Point 7 °F
Humidity 14%
Rainfall 0.00 in
Snow Depth Not available.
7:26 AM 6:56 PM
Waning Crescent, 20% visible
METAR MMDO 220246Z 36005KT 10SM SKC 13/M14 A3034 RMK SLP218 52012 917
Pressure 30.18 in
Visibility 10.0 miles
Clouds Clear
Dew Point 7 °F
Humidity 14%
Rainfall 0.00 in
Snow Depth Not available.
7:26 AM 6:56 PM
Waning Crescent, 20% visible
METAR MMDO 220246Z 36005KT 10SM SKC 13/M14 A3034 RMK SLP218 52012 917

Get Your Daily Forecast Email!

Thanks for signing up!

Be on the lookout for a verification email in your inbox.

You'll start receiving the daily forecast at 8 AM.

×

10-Day Weather Forecast

No radar image for this location.
×

Almanac

Astronomy

Feb. 21, 2017 Rise Set
Actual Time
Civil Twilight
Nautical Twilight
Astronomical Twilight
Moon
Length of Visible Light
Length of Day
Tomorrow will be .
, % of the Moon is Illuminated

Today's Extremes

Country Highs Country Lows

Community

WunderPhotos

Upload Photos

1,962,540 photos uploaded!

WunderBlog® & News

Nearby

Air Quality

  Air Quality AQ Index Pollutant
Not available.

Snow Depth

Station Depth Elevation

Earthquake Activity

City Distance Mag. Time & Date
Minimum magnitude displayed is 2.5.

Coastal Water Temperatures

Place Temperature

Stations

Nearby Weather Stations

Station Location Temp. Windchill Dew Point Humidity Wind Precip. Elev Updated Type